Regional Weather Roundup
Issued by NWS

Home | Current Version | Previous Version | Graphics & Text | Print | Product List | Glossary On
Versions: 1 2 3 4 5 6 7 8 9 10 11 12 13 14 15 16 17 18 19 20 21 22 23 24 25 26 27 28 29 30 31 32 33 34 35 36 37 38 39 40 41 42 43 44 45 46 47 48 49 50
000
ASUS43 KBIS 010502
RWRND

NORTH DAKOTA REGIONAL WEATHER ROUNDUP
NATIONAL WEATHER SERVICE BISMARCK ND
1200 AM CDT WED JUN 01 2016

NOTE: "FAIR" INDICATES FEW OR NO CLOUDS BELOW 12,000 FEET WITH NO
SIGNIFICANT WEATHER AND/OR OBSTRUCTIONS TO VISIBILITY.


NDZ001>003-009>011-017-010600-
NORTHWEST NORTH DAKOTA

CITY           SKY/WX    TMP DP  RH WIND       PRES   REMARKS
WILLISTON      CLOUDY    51  44  77 N14       29.97S
MINOT          LGT RAIN  51  47  86 NW23G31   29.82R
MINOT AFB      DRIZZLE   49  47  93 NW18G25   29.81R
$$

NDZ018>021-031>035-040>046-010600-
SOUTHWEST NORTH DAKOTA

CITY           SKY/WX    TMP DP  RH WIND       PRES   REMARKS
BISMARCK       CLOUDY    51  48  89 NW20G29   29.83R
DICKINSON      LGT RAIN  48  46  93 NW17      29.93R
GARRISON         N/A     50  46  86 NW28G33   29.83R
HETTINGER ARPT MOCLDY    49  46  90 W16       29.97S
$$

NDZ004>008-012>016-024-026-027-054-010600-
NORTHEAST NORTH DAKOTA

CITY           SKY/WX    TMP DP  RH WIND       PRES   REMARKS
GRAND FORKS    HVY RAIN  53  51  93 N3        29.62F FOG
GRND FRKS AFB  LGT RAIN  52  52 100 NW5       29.63F
DEVILS LAKE    CLOUDY    53  49  86 NW8       29.65F
$$

NDZ022-023-025-028>030-036>039-047>053-010600-
SOUTHEAST NORTH DAKOTA

CITY           SKY/WX    TMP DP  RH WIND       PRES   REMARKS
FARGO          CLOUDY    59  52  77 SW12      29.65R
JAMESTOWN      PTCLDY    55  50  83 W15       29.68R
$$




USA.gov is the U.S. government's official web portal to all federal, state and local government web resources and services.